When you browse on this site, cookies collect data to enhance your experience and personalize the content and advertising you see.
Visit our Privacy Policy to learn more. By continuing to use the site, you agree to this use of cookies and data.
  • In Czech Republic
  • List of Countries
  • For 7 days
  • Water Temperature
  • Weather Map
  • Weather Widgets
  • user-avatar
    Login

    Hourly Weather Offenbach am Main

    Today, 30 May, Saturday

    Time Temperature Precipitation Wind Pressure Humidity
    00:00 +12°C° 0 mm 3 mps 758 mmHg 66%
    01:00 +13°C° 0 mm 2 mps 758 mmHg 68%
    02:00 +13°C° 0 mm 2 mps 758 mmHg 71%
    03:00 +12°C° 0 mm 2 mps 758 mmHg 73%
    04:00 +12°C° 0 mm 2 mps 758 mmHg 76%
    05:00 +13°C° 0 mm 2 mps 758 mmHg 73%
    06:00 +14°C° 0 mm 2 mps 758 mmHg 69%
    07:00 +15°C° 0 mm 2 mps 758 mmHg 64%
    08:00 +17°C° 0 mm 3 mps 757 mmHg 56%
    09:00 +18°C° 0 mm 4 mps 757 mmHg 48%
    10:00 +19°C° 0 mm 5 mps 757 mmHg 40%
    11:00 +20°C° 0 mm 5 mps 757 mmHg 38%
    12:00 +20°C° 0 mm 5 mps 757 mmHg 37%
    13:00 +21°C° 0 mm 6 mps 757 mmHg 35%
    14:00 +20°C° 0 mm 6 mps 756 mmHg 37%
    15:00 +20°C° 0 mm 6 mps 756 mmHg 39%
    16:00 +20°C° 0 mm 6 mps 756 mmHg 42%
    17:00 +19°C° 0 mm 5 mps 756 mmHg 46%
    18:00 +17°C° 0 mm 5 mps 756 mmHg 50%
    19:00 +17°C° 0 mm 4 mps 756 mmHg 54%
    20:00 +15°C° 0 mm 4 mps 756 mmHg 58%
    21:00 +14°C° 0 mm 3 mps 756 mmHg 62%
    22:00 +12°C° 0 mm 3 mps 757 mmHg 66%
    23:00 +12°C° 0 mm 3 mps 757 mmHg 68%

    Tomorrow, 31 May, Sunday

    Time Temperature Precipitation Wind Pressure Humidity
    00:00 +12°C° 0 mm 2 mps 757 mmHg 70%
    01:00 +10°C° 0 mm 2 mps 757 mmHg 71%
    02:00 +10°C° 0 mm 2 mps 757 mmHg 75%
    03:00 +9°C° 0 mm 2 mps 757 mmHg 78%
    04:00 +8°C° 0 mm 2 mps 756 mmHg 81%
    05:00 +9°C° 0 mm 2 mps 757 mmHg 77%
    06:00 +10°C° 0 mm 2 mps 757 mmHg 72%
    07:00 +11°C° 0 mm 3 mps 757 mmHg 68%
    08:00 +13°C° 0 mm 3 mps 757 mmHg 62%
    09:00 +14°C° 0 mm 3 mps 757 mmHg 57%
    10:00 +17°C° 0 mm 4 mps 757 mmHg 51%
    11:00 +18°C° 0 mm 4 mps 756 mmHg 48%
    12:00 +19°C° 0 mm 4 mps 756 mmHg 45%
    13:00 +20°C° 0 mm 4 mps 756 mmHg 42%
    14:00 +20°C° 0 mm 4 mps 756 mmHg 43%
    15:00 +20°C° 0 mm 4 mps 756 mmHg 44%
    16:00 +20°C° 0 mm 4 mps 755 mmHg 45%
    17:00 +20°C° 0 mm 4 mps 755 mmHg 50%
    18:00 +19°C° 0 mm 3 mps 755 mmHg 54%
    19:00 +18°C° 0 mm 3 mps 755 mmHg 59%
    20:00 +17°C° 0 mm 3 mps 756 mmHg 64%
    21:00 +16°C° 0 mm 3 mps 756 mmHg 69%
    22:00 +13°C° 0 mm 3 mps 756 mmHg 74%
    23:00 +14°C° 0 mm 2 mps 756 mmHg 77%

    Day after tomorrow, 1 June, Monday

    Time Temperature Precipitation Wind Pressure Humidity
    00:00 +13°C° 0 mm 2 mps 756 mmHg 80%
    01:00 +12°C° 0 mm 2 mps 756 mmHg 82%
    02:00 +12°C° 0 mm 2 mps 756 mmHg 83%
    03:00 +12°C° 0 mm 2 mps 756 mmHg 85%
    04:00 +10°C° 0 mm 2 mps 756 mmHg 86%
    05:00 +12°C° 0 mm 2 mps 756 mmHg 82%
    06:00 +14°C° 0 mm 2 mps 756 mmHg 77%
    07:00 +15°C° 0 mm 2 mps 756 mmHg 73%
    08:00 +17°C° 0 mm 3 mps 756 mmHg 65%
    09:00 +19°C° 0 mm 3 mps 756 mmHg 58%
    10:00 +21°C° 0 mm 4 mps 756 mmHg 50%
    11:00 +22°C° 0 mm 4 mps 756 mmHg 47%
    12:00 +23°C° 0 mm 4 mps 756 mmHg 43%
    13:00 +25°C° 0 mm 4 mps 756 mmHg 40%
    14:00 +25°C° 0 mm 4 mps 755 mmHg 41%
    15:00 +25°C° 0 mm 4 mps 755 mmHg 41%
    16:00 +25°C° 0 mm 4 mps 755 mmHg 42%
    17:00 +23°C° 0 mm 4 mps 755 mmHg 47%
    18:00 +23°C° 0 mm 4 mps 755 mmHg 52%
    19:00 +22°C° 0 mm 4 mps 755 mmHg 56%
    20:00 +20°C° 0 mm 4 mps 755 mmHg 60%
    21:00 +19°C° 0 mm 4 mps 755 mmHg 64%
    22:00 +17°C° 0 mm 4 mps 755 mmHg 68%
    23:00 +16°C° 0 mm 3 mps 755 mmHg 69%

    2 June, Tuesday

    Time Temperature Precipitation Wind Pressure Humidity
    00:00 +16°C° 0 mm 3 mps 755 mmHg 70%
    01:00 +15°C° 0 mm 2 mps 755 mmHg 71%
    02:00 +14°C° 0 mm 2 mps 755 mmHg 73%
    03:00 +14°C° 0 mm 2 mps 755 mmHg 75%
    04:00 +13°C° 0 mm 2 mps 755 mmHg 77%
    05:00 +14°C° 0 mm 2 mps 755 mmHg 72%
    06:00 +15°C° 0 mm 2 mps 755 mmHg 68%
    07:00 +16°C° 0 mm 3 mps 755 mmHg 63%
    08:00 +17°C° 0 mm 3 mps 755 mmHg 56%
    09:00 +19°C° 0 mm 3 mps 755 mmHg 50%
    10:00 +20°C° 0 mm 4 mps 754 mmHg 43%
    11:00 +21°C° 0 mm 4 mps 754 mmHg 41%
    12:00 +22°C° 0 mm 4 mps 754 mmHg 40%
    13:00 +23°C° 0 mm 4 mps 753 mmHg 38%
    14:00 +25°C° 0 mm 4 mps 753 mmHg 38%
    15:00 +25°C° 0 mm 4 mps 752 mmHg 38%
    16:00 +25°C° 0 mm 4 mps 751 mmHg 39%
    17:00 +25°C° 0 mm 4 mps 751 mmHg 43%
    18:00 +24°C° 0 mm 3 mps 750 mmHg 48%
    19:00 +22°C° 0 mm 3 mps 750 mmHg 53%
    20:00 +21°C° 0 mm 3 mps 750 mmHg 58%
    21:00 +19°C° 0 mm 3 mps 750 mmHg 62%
    22:00 +18°C° 0 mm 3 mps 750 mmHg 67%
    23:00 +17°C° 0 mm 3 mps 750 mmHg 68%

    3 June, Wednesday

    Time Temperature Precipitation Wind Pressure Humidity
    00:00 +16°C° 0 mm 3 mps 750 mmHg 68%
    01:00 +14°C° 0 mm 3 mps 749 mmHg 69%
    02:00 +15°C° 0 mm 2 mps 749 mmHg 72%
    03:00 +14°C° 0 mm 2 mps 749 mmHg 74%
    04:00 +13°C° 0 mm 2 mps 749 mmHg 76%
    05:00 +14°C° 0 mm 2 mps 749 mmHg 73%
    06:00 +15°C° 0 mm 2 mps 749 mmHg 69%
    07:00 +17°C° 0 mm 3 mps 749 mmHg 65%
    08:00 +18°C° 0 mm 3 mps 749 mmHg 58%
    09:00 +20°C° 0 mm 4 mps 749 mmHg 52%
    10:00 +22°C° 0 mm 4 mps 748 mmHg 45%
    11:00 +23°C° 0 mm 4 mps 748 mmHg 43%
    12:00 +25°C° 0 mm 4 mps 748 mmHg 41%
    13:00 +26°C° 0 mm 4 mps 747 mmHg 39%
    14:00 +27°C° 0 mm 4 mps 747 mmHg 39%
    15:00 +27°C° 0 mm 4 mps 747 mmHg 39%
    16:00 +27°C° 0 mm 4 mps 747 mmHg 39%
    17:00 +26°C° 0 mm 4 mps 747 mmHg 44%
    18:00 +25°C° 0 mm 4 mps 747 mmHg 49%
    19:00 +23°C° 0 mm 4 mps 747 mmHg 54%
    20:00 +21°C° 0 mm 4 mps 747 mmHg 59%
    21:00 +20°C° 0 mm 3 mps 748 mmHg 64%
    22:00 +18°C° 0 mm 3 mps 748 mmHg 69%
    23:00 +18°C° 0 mm 3 mps 748 mmHg 71%

    4 June, Thursday

    Time Temperature Precipitation Wind Pressure Humidity
    00:00 +17°C° 0 mm 2 mps 748 mmHg 74%
    01:00 +16°C° 0 mm 2 mps 748 mmHg 76%
    02:00 +15°C° 0 mm 2 mps 748 mmHg 78%
    03:00 +15°C° 0 mm 1 mps 748 mmHg 80%
    04:00 +14°C° 0 mm 1 mps 748 mmHg 82%
    05:00 +15°C° 0 mm 1 mps 748 mmHg 77%
    06:00 +18°C° 0 mm 1 mps 748 mmHg 72%
    07:00 +19°C° 0 mm 1 mps 748 mmHg 68%
    08:00 +20°C° 0 mm 2 mps 748 mmHg 60%
    09:00 +21°C° 0 mm 2 mps 748 mmHg 53%
    10:00 +24°C° 0 mm 3 mps 748 mmHg 46%
    11:00 +25°C° 0 mm 3 mps 748 mmHg 42%
    12:00 +26°C° 0 mm 3 mps 747 mmHg 38%
    13:00 +27°C° 0 mm 3 mps 747 mmHg 34%
    14:00 +27°C° 0 mm 3 mps 747 mmHg 34%
    15:00 +28°C° 0 mm 3 mps 746 mmHg 34%
    16:00 +28°C° 0 mm 3 mps 746 mmHg 34%
    17:00 +27°C° 0 mm 3 mps 746 mmHg 39%
    18:00 +26°C° 0 mm 2 mps 745 mmHg 44%
    19:00 +25°C° 0 mm 2 mps 745 mmHg 49%
    20:00 +23°C° 0 mm 2 mps 745 mmHg 52%
    21:00 +21°C° 0 mm 1 mps 745 mmHg 55%
    22:00 +20°C° 0 mm 1 mps 745 mmHg 58%
    23:00 +19°C° 0 mm 1 mps 745 mmHg 61%
    Show more